Weather History for KMVY - May, 2013

Change the Weather History Date:

Saturday, May 11, 2013

  Actual Average Record
Temperature  
Mean Temperature 59 °F -  
Max Temperature 64 °F 63 °F 87 °F (1979)
Min Temperature 55 °F 46 °F 35 °F (1962)
Degree Days  
Heating Degree Days 6    
Growing Degree Days 9 (Base 50)    
Moisture  
Dew Point 57 °F    
Average Humidity 95    
Maximum Humidity 100    
Minimum Humidity 78    
Precipitation  
Precipitation 0.68 in - - ()
Sea Level Pressure  
Sea Level Pressure 29.86 in    
Wind  
Wind Speed 12 mph (SSW)    
Max Wind Speed 20 mph    
Max Gust Speed 29 mph    
Visibility 5 miles    
Events Fog , Rain    
Averages and records for this station are not official NWS values.
T = Trace of Precipitation, MM = Missing Value Source: NWS Daily Summary

Daily Weather History Graph

Daily Weather History Graph

Search for Another Location

Airport or City:

Trip Planner

Search our weather history database for the weather conditions in past years. The results will help you decide how hot, cold, wet, or windy it might be!

Date:

Astronomy

May. 11, 2013 Rise Set
Actual Time 5:27 AM EDT 7:50 PM EDT
Civil Twilight 4:56 AM EDT 8:21 PM EDT
Nautical Twilight 4:17 AM EDT 9:00 PM EDT
Astronomical Twilight 3:35 AM EDT 9:43 PM EDT
Moon 6:32 AM EDT (5/11) 9:28 PM EDT (5/11)
Length of Visible Light 15h 25m
Length of Day
14h 23m
Waxing Crescent, 3% of the Moon is Illuminated
May 11
Waxing Crescent
May 18
First Quarter
May 25
Full
May 31
Last Quarter
Jun 8
New

Hourly Weather History & Observations

Time (EDT) Temp. Dew Point Humidity Pressure Visibility Wind Dir Wind Speed Gust Speed Precip Events Conditions
12:26 AM 57.2 °F 55.4 °F 94% 29.97 in 3.0 mi SW 9.2 mph - N/A   Scattered Clouds
12:29 AM 57.2 °F 55.4 °F 94% 29.97 in 2.5 mi SW 9.2 mph - N/A   Mostly Cloudy
12:43 AM 57.2 °F 55.4 °F 94% 29.96 in 1.0 mi SW 9.2 mph - N/A   Overcast
12:47 AM 57.2 °F 55.4 °F 94% 29.96 in 0.5 mi SSW 9.2 mph - N/A Fog Fog
12:53 AM 57.0 °F 55.9 °F 96% 29.96 in 0.5 mi SW 9.2 mph - N/A Fog Fog
12:58 AM 57.2 °F 55.4 °F 94% 29.96 in 0.2 mi SW 9.2 mph - N/A Fog Fog
1:53 AM 55.9 °F 55.9 °F 100% 29.94 in 0.2 mi SSW 8.1 mph - N/A Fog Fog
2:00 AM 55.4 °F 55.4 °F 100% 29.94 in 0.2 mi SSW 10.4 mph - N/A Fog Fog
2:16 AM 55.4 °F 55.4 °F 100% 29.94 in 0.2 mi SSW 11.5 mph - N/A Fog Fog
2:53 AM 55.9 °F 55.9 °F 100% 29.93 in 0.2 mi SSW 8.1 mph - N/A Fog Fog
3:50 AM 55.4 °F 55.4 °F 100% 29.91 in 0.5 mi SSW 8.1 mph - N/A Fog Fog
3:53 AM 55.0 °F 55.0 °F 100% 29.91 in 0.5 mi SSW 8.1 mph - N/A Fog Fog
4:02 AM 55.4 °F 55.4 °F 100% 29.91 in 0.5 mi South 8.1 mph - N/A Fog Fog
4:45 AM 55.4 °F 55.4 °F 100% 29.90 in 0.5 mi South 6.9 mph - N/A Fog Fog
4:53 AM 55.0 °F 55.0 °F 100% 29.90 in 0.5 mi South 8.1 mph - N/A Fog Fog
5:29 AM 55.4 °F 55.4 °F 100% 29.90 in 1.2 mi South 12.7 mph - N/A   Overcast
5:38 AM 55.4 °F 55.4 °F 100% 29.90 in 3.0 mi South 17.3 mph 21.9 mph N/A   Overcast
5:53 AM 55.9 °F 55.9 °F 100% 29.91 in 8.0 mi SW 10.4 mph - N/A   Mostly Cloudy
6:00 AM 57.2 °F 55.4 °F 94% 29.90 in 8.0 mi SW 9.2 mph - N/A   Scattered Clouds
6:53 AM 57.9 °F 55.9 °F 93% 29.90 in 10.0 mi SW 12.7 mph - N/A   Overcast
7:53 AM 57.0 °F 55.0 °F 93% 29.90 in 9.0 mi SSW 11.5 mph - 0.00 in   Overcast
8:53 AM 59.0 °F 57.0 °F 93% 29.88 in 9.0 mi SSW 10.4 mph - 0.00 in Rain Light Rain
9:53 AM 62.1 °F 57.0 °F 84% 29.87 in 10.0 mi SSW 16.1 mph 24.2 mph 0.01 in   Overcast
10:53 AM 62.1 °F 55.9 °F 80% 29.88 in 10.0 mi SSW 13.8 mph 21.9 mph 0.00 in   Mostly Cloudy
11:53 AM 60.1 °F 55.9 °F 86% 29.87 in 10.0 mi SSW 16.1 mph 23.0 mph N/A   Overcast
12:53 PM 63.0 °F 55.9 °F 78% 29.85 in 10.0 mi SSW 16.1 mph 23.0 mph N/A   Overcast
1:53 PM 60.1 °F 55.9 °F 86% 29.87 in 10.0 mi SW 13.8 mph 24.2 mph 0.00 in Rain Light Rain
2:29 PM 59.0 °F 55.4 °F 88% 29.87 in 2.0 mi SW 18.4 mph 24.2 mph 0.08 in Rain Rain
2:37 PM 57.2 °F 57.2 °F 100% 29.86 in 2.5 mi SW 15.0 mph 24.2 mph 0.11 in Rain Rain
2:53 PM 60.1 °F 59.0 °F 96% 29.86 in 4.0 mi SSW 19.6 mph 26.5 mph 0.14 in Rain Rain
3:53 PM 60.1 °F 57.9 °F 93% 29.83 in 6.0 mi SSW 12.7 mph 21.9 mph 0.13 in Rain Light Rain
4:24 PM 59.0 °F 57.2 °F 94% 29.82 in 4.0 mi South 17.3 mph - 0.03 in Rain Light Rain
4:41 PM 60.8 °F 59.0 °F 94% 29.81 in 6.0 mi South 15.0 mph 24.2 mph 0.04 in Rain Light Rain
4:53 PM 60.1 °F 59.0 °F 96% 29.79 in 9.0 mi South 16.1 mph - 0.04 in Rain Light Rain
5:00 PM 60.8 °F 59.0 °F 94% 29.79 in 10.0 mi South 12.7 mph - 0.00 in Rain Light Rain
5:53 PM 59.0 °F 57.9 °F 96% 29.81 in 10.0 mi South 9.2 mph - 0.01 in Rain Light Rain
6:14 PM 59.0 °F 57.2 °F 94% 29.80 in 10.0 mi South 11.5 mph - 0.00 in   Mostly Cloudy
6:53 PM 61.0 °F 59.0 °F 93% 29.79 in 10.0 mi South 18.4 mph 25.3 mph 0.00 in   Partly Cloudy
7:05 PM 60.8 °F 59.0 °F 94% 29.78 in 7.0 mi South 16.1 mph 25.3 mph N/A   Mostly Cloudy
7:19 PM 60.8 °F 59.0 °F 94% 29.80 in 4.0 mi SSW 13.8 mph - 0.01 in Rain Light Rain
7:30 PM 60.8 °F 60.8 °F 100% 29.79 in 2.0 mi South 19.6 mph 26.5 mph 0.06 in Rain Rain
7:51 PM 60.8 °F 60.8 °F 100% 29.78 in 4.0 mi South 17.3 mph 27.6 mph 0.06 in Rain Light Rain
7:53 PM 61.0 °F 60.1 °F 97% 29.78 in 4.0 mi South 16.1 mph 26.5 mph 0.06 in   Overcast
8:09 PM 60.8 °F 59.0 °F 94% 29.78 in 1.8 mi South 17.3 mph 24.2 mph 0.00 in   Overcast
8:24 PM 60.8 °F 60.8 °F 100% 29.77 in 3.0 mi South 17.3 mph 27.6 mph 0.00 in Rain Light Rain
8:53 PM 61.0 °F 60.1 °F 97% 29.78 in 6.0 mi South 18.4 mph 28.8 mph 0.01 in   Overcast
10:53 PM 57.9 °F 57.9 °F 100% 29.76 in 4.0 mi South 19.6 mph 25.3 mph 0.08 in Rain Rain
11:53 PM 57.0 °F 57.0 °F 100% 29.75 in 4.0 mi SW 12.7 mph 18.4 mph 0.20 in Rain Light Rain